Forks, WA

2:48 AM PST on December 04, 2016 (GMT -0800)
Quillayute

Weather History for KUIL - December, 2011

Change the Weather History Date:

Tuesday, December 20, 2011

  Actual Average Record
Temperature  
Mean Temperature 42 °F 40 °F  
Max Temperature 49 °F 46 °F 58 °F (2005)
Min Temperature 35 °F 34 °F 18 °F (1990)
Degree Days  
Heating Degree Days 23 25  
Month to date heating degree days 492  
Since 1 July heating degree days 2206  
Cooling Degree Days 0 0  
Month to date cooling degree days 0  
Year to date cooling degree days 19  
Moisture  
Dew Point 41 °F    
Average Humidity 94    
Maximum Humidity 100    
Minimum Humidity 81    
Precipitation  
Precipitation 0.06 in 0.40 in 1.77 in (2009)
Month to date precipitation 8.52  
Year to date precipitation 95.07  
Sea Level Pressure  
Sea Level Pressure 30.33 in    
Wind  
Wind Speed 3 mph (NNW)    
Max Wind Speed 13 mph    
Max Gust Speed 17 mph    
Visibility 6 miles    
Events Fog , Rain    
T = Trace of Precipitation, MM = Missing Value Source: NWS Daily Summary

Daily Weather History Graph

Daily Weather History Graph

Search for Another Location

Airport or City:

Trip Planner

Search our weather history database for the weather conditions in past years. The results will help you decide how hot, cold, wet, or windy it might be!

Date:

Astronomy

Dec. 20, 2011 Rise Set
Actual Time 8:04 AM PST 4:27 PM PST
Civil Twilight 7:27 AM PST 5:03 PM PST
Nautical Twilight 6:48 AM PST 5:43 PM PST
Astronomical Twilight 6:10 AM PST 6:21 PM PST
Moon 3:22 AM PST (12/20) 1:15 PM PST (12/20)
Length of Visible Light 9h 35m
Length of Day
8h 22m
Waning Crescent, 20% of the Moon is Illuminated
Dec 20
Waning Crescent
Dec 24
New
Dec 31
First Quarter
Jan 8
Full
Jan 16
Last Quarter

Hourly Weather History & Observations

Time (PST) Temp. Windchill Dew Point Humidity Pressure Visibility Wind Dir Wind Speed Gust Speed Precip Events Conditions
12:05 AM 42.8 °F 39.3 °F 41.0 °F 93% 30.37 in 3.0 mi SSE 5.8 mph - 0.01 in Rain Light Rain
12:44 AM 42.8 °F 40.1 °F 41.0 °F 93% 30.36 in 4.0 mi SE 4.6 mph - 0.03 in Rain Light Rain
12:53 AM 42.1 °F 39.2 °F 41.0 °F 96% 30.37 in 5.0 mi SE 4.6 mph - 0.04 in Rain Light Rain
1:04 AM - - - N/A% - - North - - N/A   Unknown
1:08 AM 42.8 °F - 41.0 °F 93% 30.36 in 6.0 mi Calm Calm - 0.00 in Rain Light Rain
1:53 AM 42.1 °F 40.2 °F 42.1 °F 100% 30.34 in 10.0 mi SE 3.5 mph - 0.01 in   Overcast
2:41 AM 42.8 °F 41.1 °F 42.8 °F 100% 30.33 in 10.0 mi Variable 3.5 mph - 0.00 in   Overcast
2:53 AM 43.0 °F 39.5 °F 42.1 °F 97% 30.33 in 10.0 mi SSE 5.8 mph - 0.00 in   Overcast
3:53 AM 42.8 °F - 42.8 °F 100% 30.31 in 10.0 mi Calm Calm - N/A   Overcast
4:15 AM 42.8 °F - 42.8 °F 100% 30.31 in 1.8 mi Calm Calm - N/A   Overcast
4:30 AM 42.8 °F - 42.8 °F 100% 30.31 in 1.2 mi Calm Calm - N/A   Overcast
4:41 AM 42.8 °F - 42.8 °F 100% 30.32 in 1.5 mi Calm Calm - N/A   Overcast
4:53 AM 43.0 °F - 43.0 °F 100% 30.32 in 1.8 mi Calm Calm - 0.01 in   Overcast
5:03 AM 42.8 °F 40.1 °F 42.8 °F 100% 30.32 in 2.0 mi ESE 4.6 mph - N/A   Overcast
5:27 AM 42.8 °F - 42.8 °F 100% 30.32 in 1.8 mi Calm Calm - N/A   Overcast
5:34 AM 42.8 °F - 42.8 °F 100% 30.32 in 2.5 mi Calm Calm - N/A   Overcast
5:42 AM 42.8 °F - 42.8 °F 100% 30.31 in 3.0 mi Calm Calm - N/A   Overcast
5:53 AM 43.0 °F 41.3 °F 43.0 °F 100% 30.31 in 4.0 mi SE 3.5 mph - N/A   Overcast
6:02 AM 42.8 °F 41.1 °F 42.8 °F 100% 30.30 in 5.0 mi ESE 3.5 mph - N/A   Overcast
6:53 AM 43.0 °F - 42.1 °F 97% 30.31 in 7.0 mi Calm Calm - N/A   Overcast
7:06 AM 42.8 °F - 42.8 °F 100% 30.31 in 9.0 mi Calm Calm - N/A   Overcast
7:20 AM 44.6 °F - 42.8 °F 93% 30.32 in 10.0 mi Calm Calm - N/A   Overcast
7:53 AM 43.0 °F - 42.1 °F 97% 30.33 in 10.0 mi Calm Calm - N/A   Overcast
8:07 AM 42.8 °F - 42.8 °F 100% 30.32 in 10.0 mi Calm Calm - N/A   Overcast
8:15 AM 42.8 °F - 42.8 °F 100% 30.32 in 1.0 mi Calm Calm - N/A   Overcast
8:20 AM 42.8 °F - 42.8 °F 100% 30.32 in 0.2 mi Calm Calm - N/A Fog Fog
8:27 AM 42.8 °F - 42.8 °F 100% 30.32 in 1.0 mi Calm Calm - N/A   Overcast
8:39 AM 42.8 °F - 42.8 °F 100% 30.32 in 2.5 mi Calm Calm - N/A   Overcast
8:46 AM 44.6 °F - 42.8 °F 93% 30.32 in 9.0 mi Calm Calm - N/A   Overcast
8:53 AM 44.1 °F - 43.0 °F 96% 30.33 in 10.0 mi Calm Calm - N/A   Overcast
9:33 AM 44.6 °F 43.1 °F 42.8 °F 93% 30.33 in 6.0 mi SE 3.5 mph - N/A   Overcast
9:53 AM 45.0 °F - 44.1 °F 97% 30.35 in 6.0 mi Calm Calm - N/A   Overcast
10:04 AM 46.4 °F 43.5 °F 44.6 °F 93% 30.34 in 7.0 mi NNW 5.8 mph - N/A   Overcast
10:51 AM 46.4 °F 43.5 °F 44.6 °F 93% 30.34 in 5.0 mi NNW 5.8 mph - N/A   Scattered Clouds
10:53 AM 46.9 °F - 44.1 °F 90% 30.35 in 5.0 mi NNW 5.8 mph - N/A   Mostly Cloudy
11:53 AM 46.9 °F - 43.0 °F 86% 30.34 in 6.0 mi NNW 5.8 mph - N/A   Overcast
12:53 PM 48.0 °F - 43.0 °F 83% 30.34 in 7.0 mi NNW 6.9 mph - N/A   Overcast
1:53 PM 46.9 °F - 42.1 °F 83% 30.34 in 8.0 mi WNW 6.9 mph - N/A   Overcast
2:53 PM 46.9 °F - 42.1 °F 83% 30.33 in 9.0 mi WNW 5.8 mph - N/A   Overcast
3:53 PM 46.0 °F 41.9 °F 41.0 °F 83% 30.33 in 8.0 mi NW 8.1 mph 17.3 mph N/A   Overcast
4:05 PM 44.6 °F 39.2 °F 41.0 °F 87% 30.33 in 8.0 mi NW 10.4 mph - N/A   Overcast
4:14 PM 44.6 °F 41.4 °F 41.0 °F 87% 30.33 in 8.0 mi NNW 5.8 mph - N/A   Overcast
4:53 PM 44.1 °F 40.8 °F 39.9 °F 85% 30.34 in 9.0 mi Variable 5.8 mph - N/A   Scattered Clouds
5:23 PM 42.8 °F - 39.2 °F 87% 30.33 in 9.0 mi Calm Calm - N/A   Mostly Cloudy
5:53 PM 43.0 °F - 39.0 °F 86% 30.33 in 9.0 mi Calm Calm - N/A   Overcast
6:25 PM 42.8 °F 39.3 °F 37.4 °F 81% 30.32 in 9.0 mi NNW 5.8 mph - N/A   Scattered Clouds
6:53 PM 43.0 °F - 39.0 °F 86% 30.34 in 9.0 mi Calm Calm - N/A   Clear
7:53 PM 43.0 °F 40.3 °F 39.0 °F 86% 30.35 in 9.0 mi WNW 4.6 mph - N/A   Clear
8:53 PM 43.0 °F 41.3 °F 39.0 °F 86% 30.35 in 10.0 mi Variable 3.5 mph - N/A   Partly Cloudy
9:42 PM 39.2 °F - 37.4 °F 93% 30.36 in 10.0 mi Calm Calm - N/A   Mostly Cloudy
9:53 PM 39.9 °F - 37.0 °F 89% 30.37 in 10.0 mi Calm Calm - N/A   Overcast
10:27 PM 37.4 °F 34.9 °F 35.6 °F 93% 30.36 in 9.0 mi ESE 3.5 mph - N/A   Mostly Cloudy
10:53 PM 36.0 °F - 35.1 °F 97% 30.37 in 8.0 mi Calm Calm - N/A   Scattered Clouds
11:53 PM 35.1 °F - 34.0 °F 96% 30.37 in 9.0 mi Calm Calm - N/A   Clear